#Datum;Uhrzeit;WR;Pac;DaySum;Status;WR;Pac;DaySum;Status;Pdc1;Udc;Temp;WR;Pac;DaySum;Status;Pdc1;Udc;Temp;WR;Pac;DaySum;Status;Pdc1;Udc;Temp;WR;Pac;DaySum;Status;Pdc1;Pdc2;Udc1;Udc2;Temp;WR;Pac;DaySum;Status;Pdc1;Pdc2;Udc1;Udc2;Temp;WR;Pac;DaySum;Status;Pdc1;Udc;Temp;WR;Pac;DaySum;Status;Pdc1;Udc;Temp;WR;Pac;DaySum;Status;Pdc1;Udc;Temp
03.06.19;23:55:00;1;464;12982;0;2;0;40353;0;0;0;0;3;0;26288;0;0;0;0;4;0;36733;0;0;0;0;5;0;84736;0;0;0;0;0;0;6;0;64238;0;0;0;0;0;0;7;0;47278;0;0;0;0;8;0;46983;0;0;0;0;9;0;25970;0;0;0;0
03.06.19;23:50:00;1;438;12943;0;2;0;40353;0;0;0;0;3;0;26288;0;0;0;0;4;0;36733;0;0;0;0;5;0;84736;0;0;0;0;0;0;6;0;64238;0;0;0;0;0;0;7;0;47278;0;0;0;0;8;0;46983;0;0;0;0;9;0;25970;0;0;0;0
03.06.19;23:45:00;1;448;12907;0;2;0;40353;0;0;0;0;3;0;26288;0;0;0;0;4;0;36733;0;0;0;0;5;0;84736;0;0;0;0;0;0;6;0;64238;0;0;0;0;0;0;7;0;47278;0;0;0;0;8;0;46983;0;0;0;0;9;0;25970;0;0;0;0
03.06.19;23:40:00;1;398;12870;0;2;0;40353;0;0;0;0;3;0;26288;0;0;0;0;4;0;36733;0;0;0;0;5;0;84736;0;0;0;0;0;0;6;0;64238;0;0;0;0;0;0;7;0;47278;0;0;0;0;8;0;46983;0;0;0;0;9;0;25970;0;0;0;0
03.06.19;23:35:00;1;424;12837;0;2;0;40353;0;0;0;0;3;0;26288;0;0;0;0;4;0;36733;0;0;0;0;5;0;84736;0;0;0;0;0;0;6;0;64238;0;0;0;0;0;0;7;0;47278;0;0;0;0;8;0;46983;0;0;0;0;9;0;25970;0;0;0;0
03.06.19;23:30:00;1;463;12800;0;2;0;40353;0;0;0;0;3;0;26288;0;0;0;0;4;0;36733;0;0;0;0;5;0;84736;0;0;0;0;0;0;6;0;64238;0;0;0;0;0;0;7;0;47278;0;0;0;0;8;0;46983;0;0;0;0;9;0;25970;0;0;0;0
03.06.19;23:25:00;1;389;12761;0;2;0;40353;0;0;0;0;3;0;26288;0;0;0;0;4;0;36733;0;0;0;0;5;0;84736;0;0;0;0;0;0;6;0;64238;0;0;0;0;0;0;7;0;47278;0;0;0;0;8;0;46983;0;0;0;0;9;0;25970;0;0;0;0
03.06.19;23:20:00;1;371;12729;0;2;0;40353;0;0;0;0;3;0;26288;0;0;0;0;4;0;36733;0;0;0;0;5;0;84736;0;0;0;0;0;0;6;0;64238;0;0;0;0;0;0;7;0;47278;0;0;0;0;8;0;46983;0;0;0;0;9;0;25970;0;0;0;0
03.06.19;23:15:00;1;366;12698;0;2;0;40353;0;0;0;0;3;0;26288;0;0;0;0;4;0;36733;0;0;0;0;5;0;84736;0;0;0;0;0;0;6;0;64238;0;0;0;0;0;0;7;0;47278;0;0;0;0;8;0;46983;0;0;0;0;9;0;25970;0;0;0;0
03.06.19;23:10:00;1;361;12668;0;2;0;40353;0;0;0;0;3;0;26288;0;0;0;0;4;0;36733;0;0;0;0;5;0;84736;0;0;0;0;0;0;6;0;64238;0;0;0;0;0;0;7;0;47278;0;0;0;0;8;0;46983;0;0;0;0;9;0;25970;0;0;0;0
03.06.19;23:05:00;1;402;12638;0;2;0;40353;0;0;0;0;3;0;26288;0;0;0;0;4;0;36733;0;0;0;0;5;0;84736;0;0;0;0;0;0;6;0;64238;0;0;0;0;0;0;7;0;47278;0;0;0;0;8;0;46983;0;0;0;0;9;0;25970;0;0;0;0
03.06.19;23:00:00;1;443;12604;0;2;0;40353;0;0;0;0;3;0;26288;0;0;0;0;4;0;36733;0;0;0;0;5;0;84736;0;0;0;0;0;0;6;0;64238;0;0;0;0;0;0;7;0;47278;0;0;0;0;8;0;46983;0;0;0;0;9;0;25970;0;0;0;0
03.06.19;22:55:00;1;405;12567;0;2;0;40353;0;0;0;0;3;0;26288;0;0;0;0;4;0;36733;0;0;0;0;5;0;84736;2;0;0;0;0;0;6;0;64238;2;0;0;0;0;0;7;0;47278;0;0;0;0;8;0;46983;0;0;0;0;9;0;25970;0;0;0;0
03.06.19;22:50:00;1;981;12533;0;2;0;40353;0;0;0;0;3;0;26288;0;0;0;0;4;0;36733;0;0;0;0;5;0;84736;2;0;0;0;0;0;6;0;64238;2;0;0;0;0;0;7;0;47278;0;0;0;0;8;0;46983;0;0;0;0;9;0;25970;0;0;0;0
03.06.19;22:45:00;1;2380;12416;0;2;0;40353;0;0;0;0;3;0;26288;0;0;0;0;4;0;36733;0;0;0;0;5;0;84736;2;0;0;0;0;0;6;0;64238;2;0;0;0;0;0;7;0;47278;0;0;0;0;8;0;46983;0;0;0;0;9;0;25970;0;0;0;0
03.06.19;22:40:00;1;2390;12218;0;2;0;40353;0;0;0;0;3;0;26288;0;0;0;0;4;0;36733;0;0;0;0;5;0;84736;2;0;0;0;0;0;6;0;64238;2;0;0;0;0;0;7;0;47278;0;0;0;0;8;0;46983;0;0;0;0;9;0;25970;0;0;0;0
03.06.19;22:35:00;1;1035;12018;0;2;0;40353;0;0;0;0;3;0;26288;0;0;0;0;4;0;36733;0;0;0;0;5;0;84736;2;0;0;0;0;0;6;0;64238;2;0;0;0;0;0;7;0;47278;0;0;0;0;8;0;46983;0;0;0;0;9;0;25970;0;0;0;0
03.06.19;22:30:00;1;1924;11924;0;2;0;40353;0;0;0;0;3;0;26288;0;0;0;0;4;0;36733;0;0;0;0;5;0;84736;2;0;0;0;0;0;6;0;64238;2;0;0;0;0;0;7;0;47278;0;0;0;0;8;0;46983;0;0;0;0;9;0;25970;0;0;0;0
03.06.19;22:25:00;1;472;11792;0;2;0;40353;0;0;0;0;3;0;26288;0;0;0;0;4;0;36733;0;0;0;0;5;0;84736;2;0;0;0;0;0;6;0;64238;2;0;0;0;0;0;7;0;47278;0;0;0;0;8;0;46983;0;0;0;0;9;0;25970;0;0;0;0
03.06.19;22:20:00;1;484;11753;0;2;0;40353;0;0;0;0;3;0;26288;0;0;0;0;4;0;36733;0;0;0;0;5;0;84736;2;0;0;0;0;0;6;0;64238;2;0;0;0;0;0;7;0;47278;0;0;0;0;8;0;46983;0;0;0;0;9;0;25970;0;0;0;0
03.06.19;22:15:00;1;1879;11712;0;2;0;40353;0;0;0;0;3;0;26288;0;0;0;0;4;0;36733;0;0;0;0;5;0;84736;2;0;0;0;0;0;6;0;64238;2;0;0;0;0;0;7;0;47278;0;0;0;0;8;0;46983;0;0;0;0;9;0;25970;0;0;0;0
03.06.19;22:10:00;1;1738;11523;0;2;0;40353;0;0;0;0;3;0;26288;0;0;0;0;4;0;36733;0;0;0;0;5;0;84736;2;0;0;0;0;0;6;0;64238;2;0;0;0;0;0;7;0;47278;0;0;0;0;8;0;46983;0;0;0;0;9;0;25970;0;0;0;0
03.06.19;22:05:00;1;1938;11455;0;2;0;40353;0;0;0;0;3;0;26288;0;0;0;0;4;0;36733;0;0;0;0;5;0;84736;2;0;0;0;0;0;6;0;64238;2;0;0;0;0;0;7;0;47278;0;0;0;0;8;0;46983;0;0;0;0;9;0;25970;0;0;0;0
03.06.19;22:00:00;1;2220;11311;0;2;0;40353;0;0;0;0;3;0;26288;0;0;0;0;4;0;36733;0;0;0;0;5;0;84736;2;0;0;0;0;0;6;0;64238;2;0;0;0;0;0;7;0;47278;0;0;0;0;8;0;46983;0;0;0;0;9;0;25970;0;0;0;0
03.06.19;21:55:00;1;418;11145;0;2;0;40353;0;0;0;0;3;0;26288;0;0;0;0;4;0;36733;0;0;0;0;5;0;84736;2;0;0;0;0;0;6;0;64238;2;0;0;0;0;0;7;0;47278;0;0;0;0;8;0;46983;0;0;0;0;9;0;25970;0;0;0;0
03.06.19;21:50:00;1;1802;11091;0;2;0;40353;0;0;0;0;3;0;26288;0;0;0;0;4;0;36733;0;0;0;0;5;0;84736;2;0;0;0;0;0;6;0;64238;2;0;0;0;0;0;7;0;47278;0;0;0;0;8;0;46983;0;0;0;0;9;0;25970;0;0;0;0
03.06.19;21:45:00;1;2334;10938;0;2;0;40353;0;0;0;0;3;0;26288;0;0;0;0;4;0;36733;0;0;0;0;5;0;84736;2;0;0;0;0;0;6;0;64238;2;0;0;0;0;0;7;0;47278;0;0;0;0;8;0;46983;0;0;0;0;9;0;25970;0;0;0;0
03.06.19;21:40:00;1;382;10763;0;2;0;40353;0;0;0;0;3;0;26288;0;0;0;0;4;0;36733;0;0;0;0;5;0;84736;2;0;0;0;0;0;6;0;64238;2;0;0;0;0;0;7;0;47278;0;0;0;0;8;0;46983;0;0;0;0;9;0;25970;0;0;0;0
03.06.19;21:35:00;1;627;10727;0;2;0;40353;0;0;0;0;3;0;26288;0;0;0;0;4;0;36733;0;0;0;0;5;0;84736;2;0;0;0;0;0;6;0;64238;2;0;0;0;0;0;7;0;47278;0;0;0;0;8;0;46983;0;0;0;0;9;0;25970;0;0;0;0
03.06.19;21:30:00;1;439;10679;0;2;0;40353;0;0;0;0;3;0;26288;0;0;0;0;4;0;36733;0;0;0;0;5;0;84736;2;0;0;0;0;0;6;0;64238;2;0;0;0;0;0;7;0;47278;0;0;0;0;8;0;46983;0;0;0;0;9;0;25970;0;0;0;0
03.06.19;21:25:00;1;412;10642;0;2;0;40353;0;0;0;0;3;0;26288;0;0;151;18;4;0;36733;0;0;0;0;5;0;84736;2;0;0;0;0;0;6;0;64238;2;0;0;0;0;0;7;0;47278;0;0;0;0;8;0;46983;0;0;0;0;9;0;25970;0;0;0;0
03.06.19;21:20:00;1;362;10608;0;2;0;40353;0;0;217;25;3;0;26288;6;0;302;33;4;0;36733;0;0;47;24;5;0;84736;2;0;0;0;0;0;6;0;64238;2;0;0;0;0;0;7;0;47278;0;0;0;0;8;0;46983;0;0;0;0;9;0;25970;0;0;0;0
03.06.19;21:15:00;1;345;10578;0;2;0;40353;6;0;290;31;3;0;26288;6;0;347;33;4;0;36733;1;0;97;36;5;0;84736;2;0;1;62;62;12;6;0;64238;2;0;0;0;0;3;7;0;47278;0;0;0;0;8;0;46983;0;0;0;0;9;0;25970;0;0;0;0
03.06.19;21:10:00;1;308;10548;0;2;0;40353;6;0;312;32;3;0;26288;6;0;389;34;4;0;36733;1;0;126;36;5;0;84736;2;0;0;258;257;42;6;0;64238;1;0;6;143;287;37;7;0;47278;0;0;155;19;8;0;46983;0;0;156;19;9;0;25970;0;0;219;24
03.06.19;21:05:00;1;285;10522;0;2;0;40353;6;0;334;32;3;2;26288;6;5;393;34;4;0;36733;1;0;158;37;5;0;84736;23;0;0;361;401;42;6;0;64238;23;0;10;490;180;41;7;0;47278;6;0;306;33;8;0;46983;6;0;243;26;9;0;25970;6;0;322;30
03.06.19;21:00:00;1;495;10498;0;2;0;40353;6;0;349;33;3;0;26287;6;3;427;34;4;0;36733;1;0;182;37;5;0;84736;26;0;0;380;551;43;6;0;64238;23;3;6;181;501;42;7;0;47278;6;0;349;34;8;0;46983;0;0;285;27;9;0;25970;6;0;372;30
03.06.19;20:55:00;1;494;10453;0;2;0;40353;6;0;360;33;3;0;26287;6;3;433;35;4;0;36733;1;0;199;38;5;4;84736;4;0;0;384;604;43;6;0;64238;23;3;8;183;522;42;7;0;47278;6;0;385;34;8;0;46983;6;0;388;34;9;1;25970;6;1;395;31
03.06.19;20:50:00;1;340;10415;0;2;0;40353;6;0;369;34;3;2;26287;6;4;450;35;4;0;36733;1;0;191;38;5;10;84735;4;0;0;385;613;44;6;0;64238;23;1;6;182;533;43;7;0;47278;6;0;410;34;8;0;46983;6;0;413;34;9;0;25970;6;2;428;31
03.06.19;20:45:00;1;396;10385;0;2;0;40353;6;0;377;35;3;2;26287;6;4;463;36;4;0;36733;3;0;209;39;5;74;84734;4;5;0;356;564;45;6;26;64238;1;2;30;504;486;44;7;1;47278;3;4;409;34;8;0;46983;4;1;421;34;9;0;25970;6;2;451;31
03.06.19;20:40:00;1;355;10352;0;2;0;40353;6;0;383;35;3;1;26287;4;6;466;36;4;0;36733;1;0;220;39;5;93;84728;4;17;0;356;564;45;6;59;64236;4;9;44;453;433;44;7;3;47278;6;4;425;35;8;3;46983;3;9;412;35;9;2;25970;6;3;463;32
03.06.19;20:35:00;1;390;10322;0;2;17;40353;6;36;372;37;3;8;26287;3;18;456;37;4;0;36733;3;0;199;39;5;118;84720;4;33;7;356;564;45;6;79;64231;4;17;51;453;433;45;7;1;47278;6;7;440;35;8;2;46982;6;7;441;35;9;3;25969;4;8;458;32
03.06.19;20:30:00;1;280;10293;0;2;81;40352;4;118;353;37;3;23;26286;6;38;494;37;4;10;36733;3;10;198;40;5;152;84710;4;49;22;356;564;45;6;104;64224;4;34;77;453;433;45;7;23;47278;6;41;396;36;8;12;46982;6;26;426;35;9;3;25969;3;7;491;32
03.06.19;20:25:00;1;248;10270;0;2;342;40345;4;391;363;38;3;212;26284;4;255;454;38;4;27;36732;3;27;197;40;5;197;84697;4;81;41;356;564;45;6;133;64215;4;39;72;453;433;45;7;60;47276;4;90;373;36;8;34;46981;4;66;326;28;9;5;25969;6;9;501;33
03.06.19;20:20:00;1;448;10248;0;2;436;40317;4;486;361;39;3;271;26267;4;319;460;39;4;42;36730;3;44;197;40;5;211;84680;4;87;49;356;564;46;6;143;64204;4;55;90;453;433;45;7;65;47271;4;100;359;36;8;57;46977;4;94;398;36;9;5;25968;6;9;501;33
03.06.19;20:15:00;1;420;10209;0;2;518;40281;4;569;363;40;3;324;26245;4;373;461;39;4;45;36726;3;46;197;40;5;222;84663;4;93;56;356;564;46;6;152;64191;4;64;110;453;433;45;7;69;47265;4;109;375;36;8;64;46973;4;98;364;36;9;7;25968;6;11;505;33
03.06.19;20:10:00;1;417;10174;0;2;585;40239;4;637;366;40;3;363;26218;4;413;452;39;4;48;36722;3;50;197;41;5;228;84644;4;95;58;356;564;46;6;159;64179;4;57;93;453;433;45;7;77;47259;4;116;389;37;8;70;46967;4;108;385;36;9;7;25967;6;11;506;34
03.06.19;20:05:00;1;417;10139;0;2;404;40190;4;451;358;41;3;246;26188;4;289;444;40;4;50;36718;3;52;197;41;5;229;84625;4;93;60;356;564;46;6;157;64165;4;60;93;453;433;45;7;82;47253;4;116;368;37;8;80;46962;4;112;388;37;9;13;25967;4;19;481;34
03.06.19;20:00:00;1;419;10104;0;2;410;40157;4;462;361;42;3;250;26167;4;293;438;40;4;61;36714;3;64;198;41;5;253;84606;4;107;71;356;564;46;6;175;64152;4;70;100;453;433;45;7;105;47246;4;138;375;37;8;99;46955;4;133;370;37;9;17;25966;3;26;483;35
03.06.19;19:55:00;1;431;10069;0;2;576;40122;4;630;365;43;3;340;26147;4;388;441;41;4;84;36709;3;88;199;42;5;287;84584;4;126;89;356;564;46;6;196;64138;4;63;89;453;433;46;7;135;47237;4;174;408;38;8;126;46946;4;165;395;37;9;17;25964;6;28;498;35
03.06.19;19:50:00;1;612;10032;0;2;1027;40075;4;1100;368;44;3;615;26119;4;676;443;41;4;116;36702;5;121;205;42;5;323;84560;4;151;100;356;564;46;6;222;64121;4;76;107;453;433;46;7;208;47226;4;251;426;38;8;159;46936;4;205;433;38;9;61;25962;4;91;419;36
03.06.19;19:45:00;1;463;9989;0;2;1133;39990;4;1211;367;44;3;669;26068;4;727;437;42;4;124;36692;5;129;208;43;5;338;84533;4;157;109;356;564;46;6;237;64102;4;133;187;453;433;46;7;236;47209;4;276;382;38;8;205;46923;4;245;418;38;9;68;25957;4;100;431;37
03.06.19;19:40:00;1;465;9951;0;2;1232;39895;4;1317;369;45;3;715;26012;4;773;434;42;4;132;36682;5;137;212;43;5;350;84505;4;166;114;356;564;47;6;233;64083;4;74;106;453;433;46;7;296;47189;4;336;359;38;8;229;46906;4;271;425;38;9;79;25952;4;111;455;37
03.06.19;19:35:00;1;492;9912;0;2;1327;39793;4;1414;373;46;3;759;25952;4;818;420;43;4;145;36671;5;151;220;43;5;360;84476;4;168;121;356;564;47;6;248;64063;4;108;142;453;433;46;7;370;47165;4;412;386;39;8;293;46887;4;340;435;39;9;96;25945;4;126;488;37
03.06.19;19:30:00;1;419;9852;0;2;1440;39682;4;1530;369;47;3;803;25889;4;867;422;43;4;161;36658;5;168;226;44;5;369;84445;4;177;121;356;564;47;6;254;64042;4;97;133;453;433;46;7;457;47134;4;502;402;39;8;385;46862;4;429;388;39;9;100;25937;4;137;493;38
03.06.19;19:25:00;1;540;9816;0;2;1552;39562;4;1646;371;47;3;880;25822;4;943;419;43;4;177;36645;5;185;226;45;5;387;84414;4;184;134;358;564;47;6;266;64021;4;104;138;453;433;46;7;478;47096;4;516;335;32;8;589;46830;4;643;418;40;9;121;25929;4;156;514;38
03.06.19;19:20:00;1;551;9771;0;2;1639;39434;4;1739;371;48;3;926;25750;4;993;425;44;4;324;36630;5;337;201;45;5;415;84382;4;197;138;371;564;47;6;296;63998;4;132;177;453;474;46;7;711;47049;4;768;446;40;8;710;46783;4;769;433;40;9;124;25919;4;157;454;39
03.06.19;19:15:00;1;507;9729;0;2;1751;39297;4;1858;363;49;3;976;25672;4;1046;412;44;4;819;36603;5;853;199;46;5;461;84347;4;222;156;377;564;47;6;339;63973;4;122;169;453;513;46;7;836;46989;4;899;448;40;8;766;46723;4;826;400;40;9;93;25908;4;115;246;26
03.06.19;19:10:00;1;555;9686;0;2;1842;39151;4;1955;371;49;3;1025;25591;4;1098;422;45;4;1125;36535;5;1173;206;47;5;537;84308;4;260;194;381;577;47;6;414;63945;4;213;278;509;521;46;7;946;46920;4;1009;450;41;8;852;46660;4;910;401;41;9;182;25894;0;208;287;32
03.06.19;19:05:00;1;624;9638;0;2;1941;38998;4;2056;366;50;3;1100;25505;4;1185;427;45;4;1312;36441;5;1367;218;47;5;639;84263;4;303;246;374;606;48;6;495;63910;4;235;286;549;522;47;7;1061;46841;4;1140;448;41;8;1012;46589;4;1077;423;41;9;324;25879;4;357;358;41
03.06.19;19:00:00;1;655;9585;0;2;2049;38836;4;2169;363;50;3;1195;25414;4;1271;419;46;4;1414;36332;5;1473;220;47;5;767;84209;4;372;297;381;618;48;6;581;63868;4;249;294;545;525;47;7;1194;46753;4;1270;451;42;8;959;46505;4;1016;355;33;9;449;25853;4;491;375;42
03.06.19;18:55:00;1;709;9530;0;2;2126;38666;4;2255;372;51;3;1235;25314;4;1314;427;46;4;1507;36215;5;1569;221;48;5;914;84144;4;449;354;389;627;48;6;684;63819;4;293;327;555;524;47;7;1309;46653;4;1396;448;42;8;904;46366;0;960;294;28;9;554;25815;4;600;399;42
03.06.19;18:50:00;1;671;9469;0;2;2240;38489;4;2367;363;52;3;1309;25212;4;1390;422;46;4;1605;36089;5;1671;218;48;5;1061;84067;4;525;420;389;621;48;6;792;63762;4;339;375;544;522;47;7;1441;46544;4;1534;446;42;8;1466;46295;4;1548;439;42;9;705;25770;4;761;460;43
03.06.19;18:45:00;1;1519;9413;0;2;2353;38303;4;2483;360;52;3;1394;25103;4;1476;425;47;4;1714;35956;5;1786;218;48;5;1235;83977;4;629;495;388;627;49;6;925;63694;4;453;497;552;513;47;7;1584;46425;4;1677;443;43;8;1596;46173;4;1691;441;43;9;678;25711;4;734;391;35
03.06.19;18:40:00;1;1075;9280;0;2;2425;38106;4;2559;356;53;3;1463;24987;4;1554;447;47;4;1790;35813;5;1865;217;48;5;1398;83874;4;703;564;395;634;49;6;1066;63616;4;574;610;553;530;47;7;1705;46295;4;1803;442;43;8;1724;46042;4;1818;439;43;9;925;25641;4;994;492;45
03.06.19;18:35:00;1;1061;9175;0;2;2511;37905;4;2654;356;53;3;1523;24865;4;1615;447;48;4;1880;35664;5;1958;216;49;5;1587;83756;4;808;648;393;624;49;6;1191;63528;4;597;631;549;524;47;7;1829;46152;4;1935;442;44;8;1847;45897;4;1953;433;44;9;996;25564;4;1069;486;45
03.06.19;18:30:00;1;1554;9041;0;2;2585;37696;4;2735;358;54;3;1564;24738;4;1656;436;48;4;1960;35508;5;2041;217;49;5;1746;83623;4;919;717;390;621;49;6;1328;63428;4;664;708;548;527;48;7;1953;46002;4;2060;438;44;8;1967;45748;4;2075;436;44;9;1062;25483;4;1137;484;45
03.06.19;18:25:00;1;1969;8867;0;2;2686;37480;4;2839;358;54;3;1613;24608;4;1707;425;48;4;2056;35344;5;2141;216;49;5;1957;83476;4;1027;813;387;635;50;6;1488;63316;4;728;759;550;529;48;7;2077;45837;4;2197;438;44;8;2090;45580;4;2213;442;44;9;1134;25393;4;1213;489;46
03.06.19;18:20:00;1;2127;8741;0;2;2775;37258;4;2937;360;55;3;1642;24474;4;1737;416;49;4;2141;35174;5;2230;215;49;5;2163;83312;4;1144;902;392;634;50;6;1634;63192;4;797;806;553;523;48;7;2211;45664;4;2328;440;45;8;2223;45407;4;2341;434;45;9;1205;25298;4;1288;487;46
03.06.19;18:15:00;1;2554;8534;0;2;2869;37026;4;3034;357;56;3;1726;24337;4;1823;423;49;4;2233;34996;5;2326;214;49;5;2362;83130;4;1254;998;387;627;50;6;1798;63054;4;931;945;546;524;48;7;2348;45482;4;2473;440;45;8;2359;45223;4;2489;438;45;9;1284;25199;4;1369;484;47
03.06.19;18:10:00;1;2558;8319;0;2;2955;36787;4;3127;358;56;3;1789;24193;4;1889;428;49;4;2321;34810;5;2418;214;49;5;2574;82932;4;1379;1090;388;636;50;6;1945;62904;4;1012;1031;548;519;48;7;2456;45284;4;2599;442;46;8;2476;45025;4;2615;436;46;9;1351;25092;4;1439;484;47
03.06.19;18:05:00;1;522;8122;0;2;3045;36540;4;3215;355;56;3;1900;24044;4;2011;442;50;4;2406;34617;5;2507;215;49;5;2773;82717;4;1483;1177;391;625;50;6;2104;62741;4;1092;1112;549;530;48;7;2592;45082;4;2736;435;46;8;2604;44820;4;2748;435;46;9;1422;24980;4;1512;480;48
03.06.19;18:00:00;1;548;8077;0;2;3112;36287;4;3285;353;57;3;1942;23886;4;2050;438;50;4;2473;34415;5;2576;214;49;5;2967;82484;4;1599;1263;388;629;50;6;2244;62564;4;1131;1149;549;524;48;7;2698;44864;4;2851;437;46;8;2713;44601;4;2860;436;47;9;1480;24862;4;1577;484;48
03.06.19;17:55:00;1;482;8033;0;2;3178;36027;4;3352;353;57;3;1988;23724;4;2099;437;51;4;2531;34210;5;2637;212;48;5;3158;82235;4;1708;1354;387;622;51;6;2391;62376;4;1251;1246;539;525;48;7;2813;44639;4;2962;440;47;8;2357;44376;4;2484;361;39;9;1546;24739;4;1645;484;49
03.06.19;17:50:00;1;552;7993;0;2;3259;35763;4;3443;353;58;3;2045;23558;4;2152;428;51;4;2620;33999;5;2729;212;48;5;3368;81971;4;1815;1444;388;634;51;6;2548;62176;4;1289;1288;544;522;49;7;2935;44405;4;3087;432;47;8;2934;44142;4;3093;428;47;9;1612;24610;4;1712;481;49
03.06.19;17:45:00;1;755;7947;0;2;3336;35492;4;3521;354;58;3;2094;23388;4;2207;436;51;4;2702;33781;5;2814;212;48;5;3580;81690;4;1940;1549;387;622;51;6;2701;61963;4;1365;1348;539;520;49;7;3043;44161;4;3207;435;48;8;2436;43896;4;2565;348;38;9;1675;24475;4;1775;476;49
03.06.19;17:40:00;1;1196;7882;0;2;3379;35215;4;3569;353;58;3;2124;23214;4;2236;431;52;4;2766;33556;5;2882;211;48;5;3768;81391;4;2044;1632;387;619;51;6;2846;61737;4;1460;1461;539;523;49;7;3157;43910;4;3320;434;48;8;3155;43648;4;3320;433;48;9;1731;24338;4;1837;479;50
03.06.19;17:35:00;1;766;7784;0;2;3461;34933;4;3658;355;59;3;2187;23037;4;2307;444;52;4;2855;33326;5;2974;210;49;5;3985;81075;4;2162;1725;389;616;51;6;3000;61499;4;1526;1513;540;530;49;7;3272;43646;4;3442;435;48;8;2613;43386;4;2751;347;39;9;1797;24192;4;1906;476;50
03.06.19;17:30:00;1;655;7714;0;2;3546;34644;4;3746;354;59;3;2271;22855;4;2395;438;52;4;2939;33088;5;3061;211;49;5;4210;80742;4;2275;1832;387;619;51;6;3148;61248;4;1595;1582;539;515;49;7;3394;43377;4;3568;436;49;8;3396;43114;4;3569;430;49;9;1865;24043;4;1977;476;51
03.06.19;17:25:00;1;626;7659;0;2;3637;34350;4;3837;352;60;3;2322;22666;4;2444;437;52;4;3017;32843;5;3143;211;49;5;4410;80390;4;2402;1912;385;621;51;6;3336;60984;4;1703;1689;540;521;49;7;3521;43090;4;3705;432;49;8;3516;42827;4;3700;432;49;9;1934;23885;4;2048;472;51
03.06.19;17:20:00;1;605;7607;0;2;3697;34046;4;3906;353;60;3;2361;22472;4;2484;439;53;4;3088;32592;5;3216;210;49;5;4606;80021;4;2506;2009;386;624;52;6;3475;60705;4;1789;1767;538;519;49;7;3632;42796;4;3822;435;49;8;3619;42536;4;3809;426;49;9;1990;23725;4;2109;471;52
03.06.19;17:15:00;1;590;7556;0;2;3786;33737;4;4000;351;60;3;2388;22276;4;2514;433;53;4;3165;32335;5;3297;210;50;5;4814;79636;4;2631;2106;387;622;52;6;3631;60414;4;1853;1829;536;520;50;7;3732;42498;4;3924;427;50;8;3712;42237;4;3906;428;50;9;2046;23561;4;2169;476;52
03.06.19;17:10:00;1;1058;7505;0;2;3828;33423;4;4046;353;61;3;2449;22077;4;2578;432;53;4;3222;32071;5;3356;210;50;5;4989;79233;4;2726;2179;380;618;52;6;3767;60110;4;1955;1921;535;515;50;7;3819;42182;4;4022;424;50;8;3801;41923;4;3997;428;50;9;2097;23389;4;2222;474;52
03.06.19;17:05:00;1;1559;7415;0;2;3865;33103;4;4093;353;61;3;2483;21872;4;2616;436;53;4;3283;31803;5;3420;207;50;5;5177;78815;4;2828;2272;383;619;52;6;3917;59794;4;1984;1974;533;516;50;7;3928;41864;4;4139;427;50;8;3910;41606;4;4117;424;50;9;2161;23213;4;2290;476;53
03.06.19;17:00:00;1;1517;7294;0;2;3938;32781;4;4165;351;61;3;2516;21666;4;2648;441;54;4;3342;31529;5;3481;210;50;5;5362;78382;4;2926;2354;386;620;52;6;4051;59467;4;2076;2051;539;520;50;7;4017;41537;4;4226;427;50;8;3998;41280;4;4205;423;51;9;2205;23033;4;2335;479;53
03.06.19;16:55:00;1;2513;7176;0;2;3960;32453;4;4184;354;61;3;2584;21456;4;2724;448;54;4;3392;31251;5;3533;209;51;5;5535;77935;4;3016;2427;384;617;51;6;4185;59129;4;2134;2101;534;518;50;7;4110;41202;4;4322;424;51;8;4086;40947;4;4305;428;51;9;1506;22849;4;1593;318;35
03.06.19;16:50:00;1;1315;6976;0;2;3982;32123;4;4211;355;62;3;2620;21241;4;2760;439;54;4;3441;30967;5;3584;208;51;5;5698;77472;4;3130;2506;381;613;51;6;4311;58779;4;2243;2146;533;515;50;7;3344;40860;4;3527;344;40;8;4177;40606;4;4389;418;51;9;2297;22662;4;2434;475;53
03.06.19;16:45:00;1;541;6869;0;2;4059;31791;4;4294;352;62;3;2668;21022;4;2804;439;54;4;3498;30681;5;3643;207;51;5;5887;76996;4;3235;2590;381;620;51;6;4445;58419;4;2286;2251;533;514;50;7;4285;40512;4;4509;428;51;8;4267;40261;4;4489;423;51;9;2356;22471;4;2494;469;54
03.06.19;16:40:00;1;515;6824;0;2;4094;31453;4;4328;353;62;3;2696;20800;4;2837;442;54;4;3546;30390;5;3693;206;51;5;6032;76504;4;3321;2657;382;616;51;6;4565;58048;4;2359;2312;531;513;50;7;4371;40155;4;4603;427;51;8;3484;39807;0;3665;339;41;9;2411;22275;4;2546;471;54
03.06.19;16:35:00;1;526;6781;0;2;4172;31113;4;4415;353;62;3;2737;20575;4;2879;437;54;4;3617;30094;5;3768;205;51;5;6225;76000;4;3423;2747;384;619;50;6;4711;57666;4;2436;2384;530;512;51;7;4458;39794;4;4693;426;52;8;4435;39544;4;4665;422;52;9;2458;22073;4;2596;469;54
03.06.19;16:30:00;1;539;6736;0;2;4216;30764;4;4463;353;63;3;2769;20347;4;2912;434;54;4;3672;29793;5;3825;207;52;5;6389;75480;4;3527;2818;377;623;50;6;4832;57273;4;2484;2442;527;511;51;7;4556;39419;4;4791;427;52;8;4524;39172;4;4764;420;52;9;2509;21867;4;2644;461;55
03.06.19;16:25:00;1;469;6691;0;2;4232;30412;4;4474;354;63;3;2787;20117;4;2929;436;54;4;3695;29487;5;3848;207;52;5;6540;74946;4;3604;2880;379;611;50;6;4940;56869;4;2551;2497;528;512;51;7;4622;39039;4;4871;430;52;8;4602;38795;4;4843;423;52;9;2556;21658;4;2700;468;55
03.06.19;16:20:00;1;473;6652;0;2;4300;30060;4;4551;353;63;3;2819;19885;4;2968;436;55;4;3758;29179;5;3914;205;52;5;6725;74400;4;3717;2963;380;618;50;6;5092;56456;4;2614;2570;531;509;51;7;4702;38658;4;4949;424;53;8;4680;38414;4;4925;417;53;9;2596;21447;4;2736;462;55
03.06.19;16:15:00;1;471;6612;0;2;4327;29703;4;4576;352;63;3;2845;19650;4;2991;436;55;4;3798;28866;5;3956;205;52;5;6886;73840;4;3803;3043;376;616;50;6;5212;56031;4;2663;2623;528;510;51;7;4766;38264;4;5016;421;53;8;4730;38021;4;4976;418;53;9;2629;21229;4;2772;463;55
03.06.19;16:10:00;1;474;6573;0;2;4336;29341;4;4587;354;63;3;2873;19413;4;3016;436;55;4;3870;28550;5;4031;205;52;5;7036;73264;4;3899;3102;377;608;50;6;5316;55596;4;2727;2675;524;508;51;7;4840;37869;4;5094;418;53;8;3854;37530;0;4053;333;42;9;2671;21014;4;2818;462;56
03.06.19;16:05:00;1;473;6533;0;2;4350;28980;4;4601;353;63;3;2888;19173;4;3032;433;55;4;3866;28226;5;4027;203;52;5;7149;72677;4;3950;3158;377;603;50;6;5415;55151;4;2795;2751;521;510;51;7;4882;37462;4;5141;414;53;8;4854;37232;4;5106;416;53;9;2695;20791;4;2845;466;56
03.06.19;16:00:00;1;540;6493;0;2;4400;28617;4;4654;356;63;3;2914;18933;4;3060;441;55;4;3937;27904;5;4101;204;53;5;7296;72081;4;4036;3230;374;607;50;6;5539;54700;4;2854;2811;522;508;51;7;4935;37059;4;5202;421;53;8;4918;36825;4;5171;411;54;9;2725;20564;4;2876;462;56
03.06.19;15:55:00;1;511;6448;0;2;4463;28251;4;4721;354;63;3;2946;18690;4;3094;429;55;4;3997;27577;5;4164;205;53;5;7463;71474;4;4145;3298;375;608;50;6;5660;54238;4;2926;2859;522;506;51;7;5060;36644;4;5326;422;54;8;5025;36412;4;5288;418;54;9;2790;20338;4;2944;465;56
03.06.19;15:50:00;1;520;6406;0;2;4497;27879;4;4759;353;64;3;2968;18444;4;3119;438;55;4;4039;27244;5;4207;205;53;5;7619;70851;4;4226;3380;373;593;50;6;5781;53765;4;2974;2920;524;508;51;7;5118;36227;4;5397;430;54;8;5110;35997;4;5376;414;54;9;2837;20105;4;2996;466;57
03.06.19;15:45:00;1;517;6362;0;2;4505;27504;4;4762;355;64;3;2999;18197;4;3145;431;55;4;4078;26908;5;4248;205;53;5;7757;70215;4;4317;3435;374;596;50;6;5875;53283;4;3020;2962;521;507;51;7;5203;35796;4;5480;415;54;8;5163;35568;4;5434;422;54;9;2873;19867;4;3024;462;57
03.06.19;15:40:00;1;485;6319;0;2;4541;27129;4;4799;352;64;3;3001;17947;4;3152;435;55;4;4066;26568;5;4235;203;53;5;7801;69568;4;4324;3470;369;596;50;6;5912;52792;4;3050;2996;517;506;51;7;5235;35363;4;5521;420;54;8;5198;35138;4;5475;418;54;9;2892;19627;4;3049;468;57
03.06.19;15:35:00;1;481;6278;0;2;4588;26750;4;4852;352;64;3;3029;17697;4;3180;438;55;4;4117;26229;5;4288;203;53;5;7999;68916;4;4447;3553;374;593;50;6;6062;52297;4;3133;3082;516;506;51;7;5305;34934;4;5587;419;54;8;5261;34712;4;5530;415;54;9;2931;19392;4;3092;465;57